Theta_e
312 316 321 329 334 335 338 339 332 335 333 326 324 327 327 326 333 329 325 328 326 327 326 326 327 326 320 321 320 320 320 321 318 317 316 314 311 312 313 313 312 311 311 315 319 319 318 318 315
318 323 329 332 337 339 340 336 338 335 333 329 324 323 323 327 324 325 326 327 325 325 324 326 325 323 322 322 321 321 322 321 318 316 315 315 313 315 319 318 319 313 311 312 318 324 324 321 321
321 328 332 337 340 340 338 337 336 334 332 330 326 323 324 326 325 325 326 327 325 325 323 322 321 322 322 322 321 322 322 319 317 316 314 315 314 319 325 325 323 321 320 319 327 329 331 331 328
324 328 331 335 340 339 337 336 335 334 330 325 324 327 324 326 325 325 326 326 325 323 322 320 319 322 322 323 323 322 321 319 317 316 315 314 318 327 326 325 324 324 325 326 329 330 327 329 329
324 332 332 339 339 337 335 334 333 333 330 329 324 327 326 327 326 325 325 325 324 323 321 319 320 322 323 325 324 324 323 320 318 318 317 316 323 325 323 324 326 328 327 327 326 325 326 322 325
330 332 335 334 334 334 332 332 330 330 328 328 324 325 326 327 326 325 325 325 324 322 319 318 320 322 324 325 325 325 323 321 319 320 319 317 324 323 323 323 322 322 321 324 327 328 324 328 326
329 334 331 332 331 331 331 329 330 329 329 328 325 327 326 326 325 325 325 325 324 322 319 318 319 322 324 325 326 326 324 321 320 320 320 318 322 323 323 321 321 320 320 320 325 326 324 324 325
329 331 330 331 328 328 329 328 327 329 329 329 324 329 330 329 327 326 325 325 324 322 320 319 319 322 324 326 327 327 323 321 321 321 320 319 322 323 322 322 322 320 316 317 319 324 325 326 325
330 331 329 327 327 327 327 329 327 327 329 328 327 328 328 328 328 328 325 325 325 323 320 321 321 321 322 326 328 326 322 321 321 321 319 320 322 324 323 323 324 321 319 316 316 318 324 324 325
329 331 328 327 326 327 327 327 328 328 329 329 329 329 328 329 328 328 326 325 325 324 321 322 321 323 324 326 328 324 322 322 321 319 317 319 322 324 324 325 324 322 318 316 316 319 325 327 328
328 330 328 327 326 326 327 327 327 328 329 328 328 328 329 329 329 328 326 326 326 325 322 322 322 323 325 326 326 323 322 322 321 316 319 323 324 324 325 325 323 322 317 318 318 318 322 324 325
328 327 328 328 327 327 327 327 328 328 328 328 328 328 328 329 329 328 326 326 326 326 324 322 323 322 324 328 324 322 322 321 317 318 324 325 325 326 326 326 324 323 320 320 323 322 321 319 323
328 327 327 328 328 328 327 328 328 327 326 326 327 328 328 328 328 329 328 326 325 326 325 323 323 323 323 325 323 322 322 320 316 321 326 326 327 325 326 326 325 324 323 319 321 322 322 321 322
323 324 325 326 326 327 327 326 326 326 325 326 326 325 325 326 326 327 326 326 326 326 325 324 323 323 324 324 323 322 321 316 318 325 327 328 327 326 325 326 325 324 324 321 321 320 319 323 322
322 324 325 324 325 326 323 322 323 322 323 323 323 324 325 324 325 325 325 326 326 326 325 324 323 323 324 323 323 322 320 316 323 325 327 327 328 327 326 325 325 325 325 323 321 321 319 321 322
318 319 320 320 320 320 320 322 322 321 322 323 323 323 323 322 323 324 325 325 324 325 325 324 324 324 324 323 322 322 316 321 325 325 325 326 327 327 326 327 325 324 325 324 321 322 320 322 323
318 320 319 319 319 320 321 322 321 321 321 321 322 322 323 323 324 325 325 324 325 325 324 323 323 323 323 322 322 320 317 323 326 327 327 327 326 327 327 327 326 324 324 324 320 322 321 322 323
319 317 319 319 319 319 320 321 321 319 321 322 322 322 323 323 322 323 323 324 325 324 323 323 323 322 322 322 322 316 319 324 326 326 327 328 328 328 328 328 326 323 323 322 320 322 321 322 323
319 320 320 320 318 318 319 320 321 321 321 322 322 322 322 322 323 323 325 325 324 323 323 322 322 322 322 323 320 317 321 325 325 325 327 328 328 328 328 327 325 322 321 319 323 322 322 322 323
315 318 319 319 318 318 320 321 321 322 322 321 321 323 323 324 323 324 325 324 322 321 322 322 322 322 323 321 317 319 324 323 326 325 326 326 328 328 327 326 325 322 320 321 323 322 322 323 323
315 316 317 317 318 319 320 321 321 322 322 321 321 323 323 324 323 324 325 323 321 321 322 322 323 323 322 317 320 323 323 325 325 325 327 327 327 326 325 325 324 320 321 322 322 321 322 322 324
317 316 316 316 317 319 320 323 323 322 322 322 322 324 324 323 322 323 324 323 322 321 322 323 324 322 319 320 322 323 324 325 324 324 325 325 326 326 323 324 321 321 323 322 322 321 322 323 323
316 316 317 317 318 320 321 322 321 321 322 323 323 324 325 323 322 323 324 323 321 323 324 324 323 320 320 321 323 325 324 325 324 324 325 325 325 326 322 322 322 323 322 322 322 321 321 323 323
316 318 318 319 320 322 321 320 321 321 322 322 325 325 323 324 323 324 323 322 323 324 324 323 321 320 320 321 325 325 326 325 325 324 325 325 326 326 323 323 322 321 322 322 322 322 323 323 324
318 319 320 320 320 321 320 321 321 321 322 324 325 326 324 324 324 324 323 324 324 325 324 322 321 320 320 323 326 325 327 326 327 327 325 327 327 325 323 322 322 322 322 322 323 323 324 324 324
318 320 319 320 321 321 320 320 320 323 322 321 323 324 323 325 325 325 326 326 325 324 323 322 321 320 321 325 325 327 326 327 326 325 325 326 326 324 323 323 324 324 324 324 324 324 324 324 325
318 320 319 320 321 322 323 322 323 324 325 325 324 324 325 326 326 325 326 325 324 324 323 323 319 323 324 325 326 328 327 326 325 325 323 323 324 322 322 324 324 324 324 324 324 324 324 324 325
318 319 318 319 319 319 323 325 325 326 326 327 328 327 326 326 325 325 326 325 324 324 324 321 322 324 325 325 326 328 328 326 325 326 326 323 323 322 321 323 324 324 324 324 324 324 325 325 325
315 319 318 318 319 318 318 321 327 328 328 329 330 327 326 326 325 325 326 325 324 324 323 320 323 325 325 325 326 327 328 326 325 326 326 325 322 322 321 322 324 325 323 323 324 324 325 325 325
316 317 318 318 319 320 320 322 323 327 325 328 328 326 326 326 325 325 325 325 325 324 322 320 324 325 325 325 326 327 328 326 326 326 326 324 323 321 321 321 324 322 323 324 325 325 325 324 325
Wind_Speed
12 14 12 5 3 2 3 3 2 4 2 3 6 5 6 3 4 7 3 11 9 13 12 15 15 15 13 10 9 10 7 7 8 9 9 9 9 10 10 9 9 9 10 11 11 11 10 10 12
13 13 6 2 2 4 3 3 6 1 7 11 7 8 6 7 14 8 7 14 11 11 10 14 15 14 12 10 10 10 8 8 9 9 10 11 10 10 12 10 11 13 12 12 12 11 11 10 12
12 8 3 2 3 6 3 7 4 5 12 3 3 6 4 5 8 6 10 15 12 12 10 11 13 15 15 12 8 9 8 8 9 9 10 11 11 10 11 12 13 14 14 13 12 11 12 12 12
8 4 3 4 10 6 4 4 5 11 1 3 3 7 6 12 8 9 10 13 12 11 12 13 14 16 16 16 13 11 9 8 7 9 11 11 11 10 13 16 16 15 15 14 15 14 14 16 15
8 3 4 5 7 6 9 15 8 7 6 6 3 3 6 15 13 12 11 14 13 12 12 16 16 17 18 20 18 16 13 10 9 9 11 11 10 13 16 16 18 19 18 17 18 18 19 17 16
4 2 4 8 10 8 8 13 5 6 2 4 3 4 7 13 14 15 15 15 15 13 10 16 17 17 18 20 19 17 14 12 11 11 12 12 12 15 15 17 19 21 21 21 21 19 20 20 19
5 3 5 7 9 8 7 2 6 6 2 1 4 4 6 13 16 15 16 17 18 17 14 15 18 19 20 21 19 18 16 14 14 14 14 14 14 16 16 18 17 19 21 22 25 26 23 23 22
3 3 4 5 7 8 5 5 4 2 0 10 3 3 9 20 20 21 19 21 22 22 20 19 20 21 23 25 23 20 18 15 15 16 16 16 16 17 17 17 18 19 19 20 23 26 26 25 24
6 6 11 8 9 8 1 3 1 1 9 8 10 16 13 16 20 26 21 26 28 29 27 24 24 24 25 27 25 22 19 16 17 18 18 17 18 18 18 18 18 17 17 18 19 19 19 20 24
10 11 15 15 13 11 4 7 7 7 13 26 21 18 11 21 25 26 24 29 34 36 32 30 28 28 27 27 26 23 19 18 18 19 20 19 19 19 20 20 18 16 15 16 17 17 17 18 15
12 19 24 23 20 11 17 15 14 15 19 27 21 27 27 25 31 28 28 31 37 39 37 34 30 28 28 29 26 24 19 19 19 20 20 19 19 20 20 20 17 15 14 14 15 17 19 19 15
14 23 30 33 24 18 22 21 20 24 36 34 30 26 29 32 36 33 34 33 35 39 41 38 33 29 30 30 26 23 20 19 20 19 18 18 18 18 18 18 16 16 14 13 13 13 15 19 18
19 22 24 26 30 27 25 27 25 30 43 33 29 28 30 31 34 36 36 33 34 40 43 42 34 31 31 30 26 22 19 19 17 17 16 16 16 15 15 16 17 16 15 14 14 14 13 15 17
14 28 30 26 23 27 23 32 20 30 40 28 28 32 33 31 36 35 34 31 31 36 44 42 37 32 30 28 24 20 19 18 16 14 14 15 16 15 16 16 17 18 17 14 13 14 14 13 15
18 16 14 15 22 14 15 23 23 38 36 24 28 30 30 34 33 32 32 33 31 36 41 41 36 32 29 26 22 19 19 16 13 13 14 17 17 16 15 15 16 17 17 15 13 13 13 14 15
10 9 16 14 21 15 13 25 16 24 18 20 24 27 29 37 37 37 32 32 32 36 39 36 36 33 28 25 20 19 17 14 12 13 14 17 18 16 15 15 16 15 16 16 14 13 13 13 15
9 16 18 14 11 4 16 22 12 15 15 20 28 30 30 32 33 30 33 33 28 31 33 32 35 31 27 23 20 18 15 13 12 13 14 15 16 16 16 15 15 15 16 16 14 13 12 14 13
16 12 11 12 10 18 21 25 18 22 21 23 29 31 30 33 38 35 32 26 20 22 23 27 32 32 27 22 19 17 14 12 13 14 15 16 16 16 16 14 13 15 15 15 13 12 11 13 12
19 19 23 19 14 13 19 21 14 19 26 26 28 31 33 39 36 29 20 18 16 17 20 27 35 31 27 22 18 15 12 11 13 15 16 16 16 15 14 13 12 14 14 13 12 12 12 13 12
24 23 20 16 12 10 15 23 17 14 21 28 30 32 30 30 23 17 13 12 12 12 22 31 32 29 22 17 14 11 9 11 11 13 12 10 9 11 13 12 10 12 13 12 12 13 14 13 13
27 28 22 21 9 11 12 22 16 21 17 20 29 27 27 23 18 11 10 8 11 18 25 31 28 22 18 14 11 9 8 8 9 8 6 6 7 9 10 9 9 11 10 10 10 11 16 14 14
26 24 22 21 11 15 4 18 14 19 22 21 28 22 22 17 13 9 7 8 13 18 27 28 24 19 15 12 10 7 6 6 6 5 5 7 6 7 5 6 9 8 7 7 8 11 14 14 16
19 17 18 20 17 16 18 13 16 12 19 23 20 19 10 5 6 7 8 9 15 27 30 25 20 16 14 12 9 4 3 4 5 4 6 7 6 4 3 5 6 5 6 7 9 14 15 13 14
12 12 16 12 12 14 19 15 14 16 20 16 12 12 4 6 3 8 12 18 27 31 27 22 18 15 13 10 8 2 3 3 5 6 7 8 5 4 5 5 6 6 6 8 10 12 12 11 10
19 14 6 7 7 10 15 11 18 14 16 15 15 11 1 2 9 15 20 28 35 31 25 21 17 14 12 10 6 1 2 3 6 7 8 4 4 5 7 7 6 6 6 8 9 12 11 9 8
26 21 9 9 7 9 7 10 8 19 22 28 22 11 6 9 14 18 23 27 33 28 24 20 16 13 12 10 5 2 1 4 7 5 4 1 5 8 10 8 7 7 7 7 8 10 11 10 8
23 18 15 3 1 4 6 6 11 15 9 11 16 10 10 13 18 21 25 31 30 26 23 19 15 13 12 9 5 3 2 4 5 3 5 3 8 12 11 10 8 8 8 9 7 9 8 9 8
19 20 11 9 11 8 6 4 9 9 14 10 9 11 13 16 19 23 28 31 28 23 22 17 14 13 11 8 6 3 2 4 2 5 4 5 9 12 12 11 8 6 7 6 5 7 10 7 9
12 22 8 9 5 6 3 5 7 12 14 14 10 15 20 22 22 25 28 30 26 24 22 17 16 13 10 7 5 3 2 3 2 2 2 5 8 11 12 11 7 7 6 5 5 8 9 6 9
20 20 21 10 11 5 2 4 3 8 2 1 8 13 17 20 22 26 27 29 27 25 21 17 16 13 9 7 5 3 0 2 2 3 5 7 8 10 11 11 8 5 6 6 8 9 8 9 10
Wind_Direction
143 140 149 145 213 272 239 227 261 224 201 177 145 184 218 269 196 296 218 177 171 172 177 194 199 205 208 216 218 230 249 272 298 301 295 290 284 281 276 259 259 257 259 256 264 263 259 258 257
149 144 142 129 214 218 213 224 213 222 324 292 230 213 215 262 240 260 231 190 171 174 172 185 193 199 205 209 220 231 251 280 296 299 300 291 287 279 278 269 292 293 279 258 250 259 265 259 260
152 151 172 230 215 223 207 200 221 308 312 251 261 224 186 216 247 234 201 196 177 175 181 181 188 198 203 204 209 228 250 277 294 300 300 290 285 264 264 259 283 281 281 280 262 262 262 266 265
153 140 75 238 238 251 249 188 288 319 74 30 248 266 250 262 268 251 220 201 190 182 189 190 193 200 206 212 214 218 234 256 282 300 303 292 280 263 269 265 268 269 267 267 254 257 254 248 261
152 135 228 246 246 249 239 265 260 290 302 315 241 265 265 285 271 252 232 215 206 195 199 199 203 209 212 218 224 226 235 252 265 283 304 296 279 266 267 268 269 267 265 262 257 250 256 259 255
140 130 224 243 242 252 260 248 234 252 225 295 180 257 267 303 292 266 242 219 211 210 211 206 210 215 217 222 228 231 238 254 264 280 300 295 273 267 266 268 270 269 265 260 256 249 252 253 248
191 186 258 274 275 267 247 217 198 170 255 143 302 263 281 329 327 275 252 222 217 214 215 216 217 220 222 224 230 232 238 253 264 279 288 287 272 268 275 276 273 275 271 259 254 254 253 249 251
187 210 247 237 272 277 202 182 158 178 3 324 171 246 300 317 319 316 272 230 221 222 219 224 223 223 224 224 229 232 238 253 266 275 282 282 272 270 274 271 277 280 273 261 254 251 246 245 247
186 226 242 241 227 244 247 189 152 302 295 275 270 272 289 322 314 314 275 238 226 226 224 226 225 225 227 229 231 232 238 256 268 275 279 279 272 270 266 265 276 274 271 264 259 256 254 252 246
186 227 232 232 233 264 278 292 303 285 289 282 288 281 303 306 303 303 278 250 240 232 230 230 228 228 228 230 230 232 241 255 269 280 279 275 270 271 271 271 280 271 270 264 258 247 244 255 250
205 228 234 257 248 251 282 278 296 290 284 281 290 295 305 303 300 301 287 265 256 247 235 233 230 229 229 230 230 235 244 258 272 276 272 267 265 268 268 269 271 270 274 269 263 253 248 252 254
240 230 240 251 260 270 271 292 278 280 271 280 290 289 291 296 299 297 295 285 265 252 241 238 233 230 229 228 230 237 248 260 273 270 263 259 260 267 268 268 265 262 268 263 261 258 258 249 249
227 236 239 251 263 264 275 273 271 284 279 280 284 287 286 286 291 291 294 291 270 259 246 240 235 228 228 227 230 235 249 266 266 264 261 255 261 270 273 269 261 260 260 263 262 260 258 253 242
228 237 243 247 257 263 266 269 273 269 277 285 287 284 285 280 286 290 288 286 282 270 250 242 235 227 226 226 230 238 255 261 263 265 261 260 265 272 274 271 264 254 250 256 261 260 257 249 239
239 245 230 234 240 252 273 267 248 260 274 274 281 288 288 286 286 286 291 289 288 281 257 241 233 226 226 225 225 239 256 258 264 268 264 269 270 269 273 272 267 255 249 248 255 255 255 244 239
217 226 235 231 233 243 230 265 267 264 276 286 286 288 288 288 286 285 287 289 288 273 262 238 231 224 223 218 222 242 252 255 262 269 273 272 269 264 270 278 273 256 241 241 250 251 253 239 235
215 238 224 231 189 171 198 264 256 271 284 283 286 290 290 290 291 285 287 289 273 269 261 236 226 221 216 208 224 241 245 254 263 274 278 274 269 265 270 277 271 244 235 237 244 250 243 233 230
220 233 227 225 214 234 241 254 274 282 289 287 288 289 287 286 287 292 293 286 274 265 251 227 220 211 202 206 224 237 241 252 265 278 280 276 268 268 268 275 269 240 236 234 240 247 242 224 217
245 239 238 232 221 243 253 265 270 288 296 288 287 285 280 282 291 294 288 276 265 250 229 212 204 192 194 206 221 228 239 254 274 281 281 279 274 269 266 273 259 235 230 228 235 240 235 217 209
231 243 240 247 244 253 274 274 286 286 277 281 282 281 274 282 287 294 283 264 245 231 209 201 189 187 195 209 215 221 237 260 278 286 288 283 270 262 274 267 248 226 220 226 237 240 224 205 196
226 232 237 246 264 257 284 277 278 280 277 280 280 275 277 272 281 291 282 257 223 207 198 181 176 185 195 201 204 214 245 269 294 297 302 286 280 284 275 249 228 206 219 230 234 233 205 197 188
232 224 242 246 247 257 227 283 267 284 288 281 279 277 274 279 268 270 251 221 204 190 170 171 175 183 188 191 194 215 259 279 291 299 298 298 293 298 274 216 197 205 222 224 218 194 188 197 188
236 219 224 231 234 259 249 267 283 260 272 275 275 271 270 287 261 237 207 180 169 167 168 170 176 178 183 185 192 222 280 284 309 307 307 310 293 277 193 166 191 206 202 195 188 185 189 193 196
198 232 217 225 235 243 253 239 265 257 248 264 262 250 310 343 204 165 157 155 158 164 167 172 173 175 182 183 186 223 285 294 321 309 314 307 272 212 188 171 164 170 175 184 178 179 189 194 205
193 182 173 203 212 248 236 222 243 253 244 248 267 269 309 216 153 155 158 154 161 165 170 170 171 176 176 176 177 197 322 333 323 318 322 297 217 169 154 145 157 152 165 167 174 179 181 195 196
191 189 191 192 205 228 190 221 249 234 247 241 244 257 254 181 162 162 160 161 163 168 171 169 169 169 168 169 168 164 50 347 340 329 349 186 166 155 146 146 140 136 148 160 169 183 190 190 186
194 207 196 226 14 254 172 250 278 248 249 220 228 217 195 177 165 164 165 166 169 172 172 167 163 160 163 161 159 130 50 8 353 45 64 104 152 152 151 156 140 143 145 147 150 170 177 183 184
189 171 191 215 216 230 184 240 240 214 227 225 219 200 178 168 164 165 169 172 173 173 168 161 158 155 161 159 151 144 40 21 36 62 72 99 145 155 161 163 155 155 161 159 157 162 172 190 186
182 189 191 193 217 217 245 232 216 228 219 198 203 180 169 167 165 167 172 176 173 173 167 161 161 161 166 160 165 157 44 23 51 53 63 146 148 159 171 166 162 161 174 170 161 158 173 171 167
193 191 189 196 191 184 210 249 50 249 199 208 126 146 160 157 161 169 173 174 176 174 170 165 166 168 171 172 181 169 97 26 42 98 110 133 147 164 169 166 164 163 163 150 150 160 163 162 165